CW6532 Weather Reports


Display with metric or nautical units.
time (UTC)temp
F
wind
direction
speed
MPH
gust
MPH
rain 1hr
in
rain 24hr
in
rain mn
in
humidity
%
barometer
mb
20260504081320 70 256 0.0 2.0 0.00 0.00 0.00 28 1021.3
20260504080349 70 256 1.0 3.0 0.00 0.00 0.00 27 1021.6
20260504070325 72 230 3.0 9.0 0.00 0.00 0.00 26 1021.8
20260504050319 72 269 2.0 4.0 0.00 0.00 0.00 26 1022.1
20260504045343 72 269 3.0 5.0 0.00 0.00 0.00 25 1022.2
20260504044351 72 209 2.0 5.0 0.00 0.00 0.00 24 1022.2
20260504043323 73 209 2.0 10.0 0.00 0.00 0.00 23 1022.2
20260504042332 73 209 2.0 8.0 0.00 0.00 0.00 23 1022.0
20260504041321 73 250 7.0 11.0 0.00 0.00 0.00 22 1022.1
20260504040332 74 251 1.0 4.0 0.00 0.00 0.00 21 1021.7
20260504035322 74 254 0.0 5.0 0.00 0.00 0.00 20 1021.4
20260504034335 75 182 3.0 13.0 0.00 0.00 0.00 20 1021.3
20260504033333 75 218 4.0 8.0 0.00 0.00 0.00 19 1021.2
20260504032322 76 227 6.0 13.0 0.00 0.00 0.00 19 1021.0
20260504031333 76 284 7.0 14.0 0.00 0.00 0.00 18 1020.7
20260504030326 76 254 7.0 14.0 0.00 0.00 0.00 17 1020.4
20260504025333 77 250 10.0 14.0 0.00 0.00 0.00 17 1020.3
20260504024357 78 238 9.0 18.0 0.00 0.00 0.00 16 1019.9
20260504023323 79 239 11.0 23.0 0.00 0.00 0.00 15 1019.8
20260504022328 79 254 13.0 20.0 0.00 0.00 0.00 14 1019.5
20260504021333 80 228 13.0 18.0 0.00 0.00 0.00 14 1019.6
20260504020342 80 229 9.0 16.0 0.00 0.00 0.00 14 1019.3
20260504015331 81 240 10.0 20.0 0.00 0.00 0.00 14 1019.1
20260504014319 81 239 11.0 22.0 0.00 0.00 0.00 13 1019.2
20260504013317 82 232 13.0 20.0 0.00 0.00 0.00 13 1018.9
20260504012342 82 240 14.0 25.0 0.00 0.00 0.00 13 1018.8
20260504011330 83 256 16.0 26.0 0.00 0.00 0.00 13 1019.1
20260504010323 84 265 18.0 27.0 0.00 0.00 0.00 13 1019.0
20260504005332 84 248 17.0 33.0 0.00 0.00 0.00 13 1019.1
20260504004320 84 240 15.0 25.0 0.00 0.00 0.00 13 1019.2
20260504003340 84 240 11.0 26.0 0.00 0.00 0.00 13 1019.1
20260504002322 85 248 18.0 29.0 0.00 0.00 0.00 12 1019.0
20260504001329 86 228 14.0 29.0 0.00 0.00 0.00 13 1018.9
20260504000341 86 240 17.0 31.0 0.00 0.00 0.00 13 1019.0
20260503235327 86 252 17.0 30.0 0.00 0.00 0.00 13 1019.0
20260503234401 87 206 14.0 29.0 0.00 0.00 0.00 13 1018.6
20260503233333 88 221 12.0 23.0 0.00 0.00 0.00 13 1018.7
20260503232321 88 237 16.0 28.0 0.00 0.00 0.00 13 1018.9
20260503231332 87 275 14.0 25.0 0.00 0.00 0.00 14 1018.8
20260503230321 87 230 9.0 19.0 0.00 0.00 0.00 13 1019.0
20260503225328 87 220 12.0 26.0 0.00 0.00 0.00 13 1019.1
20260503224354 87 250 12.0 22.0 0.00 0.00 0.00 13 1019.2
20260503223349 87 234 12.0 16.0 0.00 0.00 0.00 14 1019.3
20260503222317 87 248 12.0 18.0 0.00 0.00 0.00 14 1019.3
20260503221321 87 256 5.0 13.0 0.00 0.00 0.00 15 1019.3
20260503220327 86 254 11.0 16.0 0.00 0.00 0.00 16 1019.4
20260503215334 86 233 10.0 16.0 0.00 0.00 0.00 17 1019.5
20260503214322 86 240 4.0 16.0 0.00 0.00 0.00 19 1019.6
20260503213336 86 248 7.0 16.0 0.00 0.00 0.00 20 1019.9
20260503212320 86 229 7.0 12.0 0.00 0.00 0.00 21 1020.2
20260503211324 85 266 7.0 14.0 0.00 0.00 0.00 22 1020.2
20260503210331 85 227 10.0 18.0 0.00 0.00 0.00 22 1020.3
20260503205335 85 190 7.0 16.0 0.00 0.00 0.00 22 1020.6
20260503204319 83 138 10.0 17.0 0.00 0.00 0.00 23 1020.8
20260503203358 83 132 9.0 14.0 0.00 0.00 0.00 23 1020.9
20260503202324 84 133 8.0 15.0 0.00 0.00 0.00 23 1020.9
20260503201332 83 159 2.0 11.0 0.00 0.00 0.00 23 1021.1
20260503200342 82 166 9.0 14.0 0.00 0.00 0.00 24 1021.2
20260503195324 83 171 7.0 21.0 0.00 0.00 0.00 23 1021.4
20260503194332 83 140 11.0 21.0 0.00 0.00 0.00 23 1021.4
20260503193325 83 193 10.0 20.0 0.00 0.00 0.00 23 1021.5
20260503192333 83 194 10.0 20.0 0.00 0.00 0.00 22 1021.7
20260503191319 82 126 11.0 19.0 0.00 0.00 0.00 24 1021.9
20260503190346 82 182 12.0 18.0 0.00 0.00 0.00 24 1022.0
20260503185334 81 148 9.0 16.0 0.00 0.00 0.00 27 1022.2
20260503184321 80 136 9.0 17.0 0.00 0.00 0.00 27 1022.6
20260503183401 80 158 8.0 18.0 0.00 0.00 0.00 28 1022.7
20260503182330 80 148 11.0 15.0 0.00 0.00 0.00 27 1022.8
20260503181320 80 131 9.0 18.0 0.00 0.00 0.00 28 1022.9
20260503180330 79 139 10.0 17.0 0.00 0.00 0.00 28 1023.0
20260503175337 79 110 8.0 13.0 0.00 0.00 0.00 29 1023.1
20260503174329 79 183 7.0 17.0 0.00 0.00 0.00 28 1023.1
20260503173324 79 154 7.0 15.0 0.00 0.00 0.00 28 1023.2
20260503172327 79 142 9.0 16.0 0.00 0.00 0.00 28 1023.2
20260503171331 79 169 9.0 15.0 0.00 0.00 0.00 29 1023.5
20260503170317 79 187 8.0 13.0 0.00 0.00 0.00 29 1023.5
20260503150318 74 350 0.0 2.0 0.00 0.00 0.00 32 1023.6
20260503131326 68 150 1.0 3.0 0.00 0.00 0.00 40 1022.6
20260503130332 68 150 1.0 3.0 0.00 0.00 0.00 40 1022.5
20260503110344 70 116 0.0 3.0 0.00 0.00 0.00 36 1022.4